www.pogodaiklimat.ru

Погода и климат >> Архив погоды >> Россия >> Якутия >> Белая Гора


ПОГОДА в Белой Горе

  • Прогноз погоды в Белой Горе
  • Монитор погоды в Белой Горе
  • Климат города

АРХИВ ПОГОДЫ в Белой Горе

Время (UTC), дата Ветер
(напр.,м/с)
 
Видим.   Явления Облачность Т
(С)
Тd
(С)
f
(%)
Тe
(С)
Тes
(С)
Комфортность P
(гПа)
Po
(гПа)
Тmin
(С)
Tmax
(С)
R
(мм)
R24
(мм)
S
(см)
06 12.08 СВ 4 н/о н/о +15.6 +7.9 60 +15 +15 1011.4 1006.2
09 12.08 В 4 н/о н/о +12.9 +8.0 72 +11 +11 1011.8 1006.5 +15.6
12 12.08 В 3 н/о н/о +11.4 +7.4 76 +10 +10 1012.3 1007.0
15 12.08 В 3 н/о н/о +10.9 +7.4 79 +9 +9 1012.2 1006.9
18 12.08 В 2 н/о н/о +10.4 +6.8 78 +9 +9 1012.7 1007.4
21 12.08 В 2 н/о н/о +11.1 +6.5 73 +10 +10 1013.2 1007.8 +10.3
00 13.08 В 4 н/о н/о +12.1 +6.5 69 +10 +10 1013.6 1008.3
03 13.08 В 3 н/о н/о +13.0 +7.3 68 +12 +12 1013.9 1008.6
06 13.08 В 2 н/о н/о +13.1 +7.9 71 +12 +12 1014.7 1009.4
09 13.08 З 2 н/о н/о +11.5 +9.7 89 +10 +10 1016.5 1011.2 +13.4
12 13.08 З 1 н/о н/о +10.5 +10.2 98 +10 +10 1017.5 1012.1
15 13.08 ЮЗ 1 н/о н/о +10.3 +10.1 99 +10 +10 1017.9 1012.6
18 13.08 З 3 н/о н/о +11.2 +11.0 99 +9 +9 1019.0 1013.6
21 13.08 ЮЗ 1 н/о н/о +12.4 +12.2 99 +12 +12 1020.1 1014.7 +10.3
00 14.08 З 1 50 км 5/5 300 м
[Sc diur, vesp]
+18.3 +14.3 77 +20 +23 1020.0 1015.1
03 14.08 ЮЗ 3 50 км 8/8 300 м
[Sc diur, vesp]
+21.6 +13.2 59 +24 +25 комфорт 1019.0 1014.2
06 14.08 ЮЗ 3 50 км 6/6 300 м
[Cu hum]
+23.1 +13.4 54 +26 +28 жарко 1018.2 1013.4
09 14.08 Ю 2 н/о н/о +21.2 +13.6 62 +24 +24 комфорт 1018.1 1013.0 +23.4
12 14.08 Ю 4 н/о н/о +17.4 +13.7 79 +17 +17 1017.3 1012.1
15 14.08 Ю 5 н/о н/о +15.7 +13.0 84 +14 +14 1016.9 1011.6
18 14.08 Ю 5 н/о н/о +14.3 +12.1 87 +13 +13 1017.1 1011.8
21 14.08 ЮЗ 3
{10}
н/о н/о +16.2 +12.5 79 +16 +16 1017.5 1012.2 +14.2
00 15.08 Ю 4 50 км ясно +21.4 +13.4 60 +24 +28 комфорт 1016.3 1011.5
03 15.08 Ю 3 50 км ясно +25.1 +11.5 43 +27 +32 жарко 1014.7 1009.9
06 15.08 Ю 3 50 км ясно +26.5 +16.7 55 +30 +33 душно 1012.9 1008.2
09 15.08 Ю 2 н/о н/о +24.9 +11.7 44 +26 +26 жарко 1011.5 1006.4 +26.5
12 15.08 Ю 4 н/о н/о +20.3 +13.1 63 +22 +22 комфорт 1010.4 1005.3
15 15.08 ЮЗ 3 н/о н/о +17.3 +13.6 79 +17 +17 1009.2 1004.0
18 15.08 Ю 3 н/о н/о +15.5 +13.3 87 +15 +15 1008.2 1003.0
21 15.08 Ю 2 н/о н/о +16.4 +13.3 82 +17 +17 1007.4 1002.2 +15.2
00 16.08 ЮЗ 3 50 км 8/0
[Cs]
+24.1 +14.5 55 +27 +31 жарко 1005.3 1000.6
03 16.08 З 6 50 км 10/0
[As op Cs]
+27.0 +13.3 43 +29 +30 жарко 1000.0 1000.0
06 16.08 З 2 50 км 10/0
[As op]
+25.1 +15.5 55 +28 +29 жарко 1005.5 1000.8
09 16.08 С 4 н/о н/о +22.1 +15.5 66 +26 +26 душно 1006.8 1001.8 +27.6
12 16.08 СВ 1 н/о н/о +17.5 +15.5 88 +19 +19 1007.4 1002.2
15 16.08 С 5 н/о н/о +15.0 +12.9 87 +14 +14 1007.9 1002.7
18 16.08 С 5
{11}
н/о н/о +9.4 +8.9 97 +6 +6 1011.0 1005.6
21 16.08 С 5
{10}
н/о н/о +8.4 +7.0 91 +5 +5 1013.3 1008.0 +8.4
00 17.08 С 4 50 км 10/10 300 м
[Sc]
+8.8 +5.7 81 +6 +6 1014.7 1009.7
03 17.08 СЗ 4 50 км 10/10 300 м
[Sc]
+9.8 +5.7 76 +7 +7 1015.3 1010.3
06 17.08 СЗ 4 50 км 10/10 600 м
[Sc]
+11.1 +5.2 67 +9 +9 1015.6 1010.6
09 17.08 С 3 н/о н/о +9.6 +5.8 77 +7 +7 1016.4 1011.1 +11.4
12 17.08 С 3 н/о н/о +8.7 +6.4 85 +6 +6 1017.1 1011.7
15 17.08 В 1 н/о н/о +7.5 +6.5 93 +6 +6 1016.4 1011.0
18 17.08 СВ 3 н/о н/о +6.8 +6.0 95 +4 +4 1015.7 1010.3
21 17.08 В 2 н/о н/о +8.0 +6.1 88 +6 +6 1015.6 1010.2 +6.7
00 18.08 В 1 50 км 10/10 300 м
[Sc]
+8.9 +6.1 83 +8 +8 1014.8 1009.8
03 18.08 СВ 1 50 км 10/10 300 м
[Sc]
+10.7 +6.2 74 +11 +11 1014.1 1009.1
06 18.08 С 1 50 км 10/10 300 м
[Sc]
+11.5 +5.9 68 +12 +12 1014.0 1009.0
09 18.08 В 1 н/о н/о +11.5 +6.4 71 +11 +11 1014.7 1009.4 +12.0
12 18.08 В 1 н/о н/о +10.1 +6.6 79 +10 +10 1014.9 1009.5
15 18.08 Ю 2 н/о н/о +7.9 +6.2 89 +6 +6 1014.1 1008.7
18 18.08 Ю 2 н/о н/о +8.0 +6.7 91 +6 +6 1013.4 1008.0
21 18.08 Ю 3 н/о н/о +8.7 +7.3 91 +6 +6 1013.3 1007.9 +7.2
00 19.08 Ю 4 н/о н/о +10.5 +7.4 81 +8 +8 1012.2 1006.8

 

Местоположение метеостанции Белая Гора (Якутия, Россия): широта 68.55 долгота 146.20 высота над уровнем моря 41 м.

В архиве по умолчанию представлена погода в Белой Горе за последнюю неделю. Архивные данные за месяц целиком и за предыдущие месяцы, начиная с января 2011 года, Вы можете получить, выбрав интересующий диапазон дат из раскрывающегося списка и нажав кнопку "Ввод!".

Внимание! Время в таблицах - всемирное. Для получения местного времени необходимо прибавить поправку, которая в Белой Горе равна 11 ч.

Смотрите также архив погоды в соседних городах и на ближайших метеорологических станциях:

Погода в Чокурдахе (Якутия, Россия) (238 км)
Погода в Усть-Моме (Якутия, Россия) (266 км)
Погода в Депутатском (Якутия, Россия) (272 км)
Погода в Среднеколымске (Якутия, Россия) (335 км)
Погода в Андрюшкино (Якутия, Россия) (340 км)
Погода в Зырянке (Якутия, Россия) (373 км)
Погода в Усть-Куйге (Якутия, Россия) (447 км)
Погода в Усть-Чарках (Якутия, Россия) (449 км)
Погода в Юбилейной (Якутия, Россия) (458 км)
Погода в Усть-Нере (Якутия, Россия) (468 км)

Пояснения к столбцам:

Ветер - указаны скорость ветра в м/с - средняя за 10 мин, порывы в срок и между сроками (в фигурных скобках) и направление, откуда дует ветер: С - северный, СВ - северо-восточный, В - восточный, ЮВ - юго-восточный, Ю - южный, ЮЗ - юго-западный, З - западный, СЗ - северо-западный.
Видимость - горизонтальная дальность видимости в метрах или километрах. При видимости от 1 до 10 км при отсутствии осадков обычно наблюдается дымка, при ухудшении видимости до 1 км и менее - туман. В сухую погоду видимость может ухудшаться дымом, пылью или мглою.
Явления - указаны атмосферные явления, наблюдавшиеся в срок или в последний час перед сроком; фигурными скобками обозначены явления, наблюдавшиеся между сроками (за 1-3 часа до срока); квадратными скобками обозначены град или гололедные отложения с указанием их диаметра в мм.
Облачность - указаны через наклонную черту общая и нижняя облачность в баллах и высота нижней границы облаков в метрах; квадратными скобками обозначены формы облаков: Ci - перистые, Cs - перисто-слоистые, Cc - перисто-кучевые, Ac - высококучевые, As - высокослоистые, Sc - слоисто-кучевые, Ns - слоисто-дождевые, Cu - кучевые, Cb - кучево-дождевые. Подробнее классификацию облаков см. в Атласе облаков (PDF).
T - Температура воздуха - температура, измеренная на высоте 2 м над землей.
Td - Температура точки росы - температура, при понижении до которой содержащийся в воздухе водяной пар достигнет насыщения.
f - Относительная влажность воздуха - влажноcть воздуха, измеренная на высоте 2 м над землей.
Te - Эффективная температура - температура, которую ощущает одетый по сезону человек в тени. Характеристика душности погоды. При расчете учитывается влияние влажности воздуха и скорости ветра на теплоощущения человека.
Tes - Эффективная температура на солнце - температура, которую ощущает человек, с поправкой на солнечный нагрев. Характеристика знойности погоды. Зависит от высоты солнца над горизонтом, облачности и скорости ветра. Ночью, в пасмурную погоду, а также при ветре 12 м/с и более поправка равна нулю.
P - Атмосферное давление - приведенное к уровню моря атмосферное давление.
Po - Атмосферное давление - измеренное на уровне метеостанции атмосферное давление.
Tmin - Минимальная температура - минимум температуры воздуха на высоте 2 м над землей.
Tmax - Максимальная температура - максимум температуры воздуха на высоте 2 м над землей.
R - Количество осадков - Количество выпавших осадков за период времени, мм. При наведении курсора мыши на число - период времени, за который выпало указанное количество осадков.
R24 - Количество осадков - Количество выпавших осадков за 24 часа, мм.
S - Снежный покров - Высота снежного покрова, см. При наведении курсора мыши на число - состояние снежного покрова и степень покрытия местности в баллах.